This is the latest recevied weather packets stored in our database for station/object W4SNA-3. If no packets are shown the sender has not sent any weather packets the latest 10 day(s).
| Time | Temp. | Humidity | Pressure | Rain* | Wind** | Luminosity | Snow |
|---|---|---|---|---|---|---|---|
| 1777585080 | 14.44° C | 44% | 1009.6 hPa | 0 mm | - | - | - |
| 1777584786 | 15° C | 44% | 1009.5 hPa | 0 mm | - | - | - |
| 1777584476 | 15° C | 43% | 1009.5 hPa | 0 mm | - | - | - |
| 1777584174 | 15° C | 44% | 1009.4 hPa | 0 mm | - | - | - |
| 1777583874 | 15.56° C | 42% | 1009.3 hPa | 0 mm | - | - | - |
| 1777583574 | 15.56° C | 42% | 1009.2 hPa | 0 mm | - | - | - |
| 1777583290 | 15.56° C | 43% | 1009.2 hPa | 0 mm | - | - | - |
| 1777582977 | 15.56° C | 38% | 1009.2 hPa | 0 mm | - | - | - |
| 1777582682 | 16.11° C | 40% | 1009.1 hPa | 0 mm | - | - | - |
| 1777582374 | 16.67° C | 40% | 1009.1 hPa | 0 mm | - | - | - |
| 1777582076 | 16.67° C | 42% | 1009.1 hPa | 0 mm | - | - | - |
| 1777581775 | 16.67° C | 42% | 1009.1 hPa | 0 mm | - | - | - |
| 1777581474 | 16.67° C | 41% | 1009.2 hPa | 0 mm | - | - | - |
| 1777581175 | 16.67° C | 40% | 1009.2 hPa | 0 mm | - | - | - |
| 1777580877 | 17.22° C | 40% | 1009.2 hPa | 0 mm | - | - | - |
| 1777580574 | 17.22° C | 40% | 1009.2 hPa | 0 mm | - | - | - |
| 1777580274 | 17.22° C | 40% | 1009.2 hPa | 0 mm | - | - | - |
| 1777579974 | 17.22° C | 38% | 1009.2 hPa | 0 mm | - | - | - |
| 1777579674 | 17.78° C | 41% | 1009.2 hPa | 0 mm | - | - | - |
| 1777579374 | 17.78° C | 40% | 1009.2 hPa | 0 mm | - | - | - |
| 1777578950 | 17.78° C | 39% | 1009.2 hPa | 0 mm | - | - | - |
| 1777578648 | 17.78° C | 40% | 1009.3 hPa | 0 mm | - | - | - |
| 1777578059 | 17.78° C | 37% | 1009.2 hPa | 0 mm | - | - | - |
| 1777577759 | 17.78° C | 40% | 1009.3 hPa | 0 mm | - | - | - |
| 1777577469 | 17.22° C | 42% | 1009.2 hPa | 0 mm | - | - | - |
* Rain latest hour (hover to see other rain measurements)
** Current wind speed in m/s (hover to see current wind gust speed)